| time (UTC) | temp F | wind direction | speed knots | gust knots | rain 1hr in | rain 24hr in | rain mn in | humidity % | barometer mb |
| 20260906070032 | 60 | 311 | 0.9 | 1.7 | 0.00 | 0.00 | 0.00 | 91 | 1016.3 |
| 20260906064532 | 61 | 311 | 0.0 | 4.3 | 0.00 | 0.00 | 0.00 | 91 | 1016.2 |
| 20260906063030 | 61 | 9 | 1.7 | 4.3 | 0.00 | 0.00 | 0.00 | 91 | 1016.0 |
| 20260906061529 | 60 | 351 | 1.7 | 4.3 | 0.00 | 0.00 | 0.00 | 91 | 1015.8 |
| 20260906060031 | 59 | 317 | 0.0 | 1.7 | 0.00 | 0.00 | 0.00 | 90 | 1015.9 |
| 20260906054525 | 60 | 334 | 0.0 | 1.7 | 0.00 | 0.00 | 0.00 | 90 | 1015.8 |
| 20260906053024 | 61 | 328 | 0.9 | 4.3 | 0.00 | 0.00 | 0.00 | 90 | 1015.8 |
| 20260906051527 | 61 | 360 | 1.7 | 3.5 | 0.00 | 0.00 | 0.00 | 90 | 1015.8 |
| 20260906050023 | 61 | 10 | 2.6 | 4.3 | 0.00 | 0.00 | 0.00 | 90 | 1015.6 |
| 20260906044521 | 60 | 24 | 1.7 | 4.3 | 0.00 | 0.00 | 0.00 | 90 | 1015.5 |
| 20260906043016 | 60 | 5 | 2.6 | 5.2 | 0.00 | 0.00 | 0.00 | 89 | 1015.4 |
| 20260906041521 | 60 | 5 | 2.6 | 4.3 | 0.00 | 0.00 | 0.00 | 89 | 1015.4 |
| 20260906040012 | 60 | 5 | 1.7 | 7.0 | 0.00 | 0.00 | 0.00 | 88 | 1015.3 |
| 20260906034511 | 61 | 29 | 2.6 | 4.3 | 0.00 | 0.00 | 0.00 | 88 | 1015.2 |
| 20260906033011 | 61 | 360 | 3.5 | 5.2 | 0.00 | 0.00 | 0.00 | 87 | 1015.2 |
| 20260906031510 | 61 | 39 | 2.6 | 5.2 | 0.00 | 0.00 | 0.00 | 87 | 1015.3 |
| 20260906030010 | 61 | 350 | 1.7 | 5.2 | 0.00 | 0.00 | 0.00 | 86 | 1015.2 |
| 20260906024509 | 61 | 20 | 2.6 | 7.0 | 0.00 | 0.00 | 0.00 | 86 | 1015.1 |
| 20260906023018 | 61 | 5 | 3.5 | 7.0 | 0.00 | 0.00 | 0.00 | 85 | 1015.2 |
| 20260906021513 | 61 | 5 | 2.6 | 7.0 | 0.00 | 0.00 | 0.00 | 85 | 1015.3 |
| 20260906020009 | 61 | 360 | 2.6 | 5.2 | 0.00 | 0.00 | 0.00 | 84 | 1015.1 |
| 20260906014507 | 61 | 20 | 1.7 | 3.5 | 0.00 | 0.00 | 0.00 | 83 | 1015.3 |
| 20260906013005 | 61 | 355 | 1.7 | 5.2 | 0.00 | 0.00 | 0.00 | 83 | 1015.3 |
| 20260906011503 | 61 | 5 | 1.7 | 3.5 | 0.00 | 0.00 | 0.00 | 83 | 1015.1 |
| 20260906010002 | 61 | 344 | 1.7 | 5.2 | 0.00 | 0.00 | 0.00 | 82 | 1014.8 |
| 20260906004600 | 62 | 355 | 2.6 | 5.2 | 0.00 | 0.00 | 0.00 | 81 | 1014.8 |
| 20260906003059 | 62 | 15 | 1.7 | 7.8 | 0.00 | 0.00 | 0.00 | 79 | 1015.2 |
| 20260906001559 | 63 | 5 | 2.6 | 5.2 | 0.00 | 0.00 | 0.00 | 78 | 1015.0 |
| 20260906000058 | 64 | 341 | 0.9 | 7.0 | 0.00 | 0.00 | 0.00 | 76 | 1015.0 |
| 20260905234611 | 64 | 360 | 1.7 | 8.7 | 0.00 | 0.00 | 0.00 | 75 | 1014.9 |
| 20260905233056 | 65 | 345 | 2.6 | 9.6 | 0.00 | 0.00 | 0.00 | 73 | 1014.9 |
| 20260905231556 | 66 | 338 | 5.2 | 10.4 | 0.00 | 0.00 | 0.00 | 70 | 1014.9 |
| 20260905230123 | 66 | 12 | 5.2 | 12.2 | 0.00 | 0.00 | 0.00 | 70 | 1014.8 |
| 20260905224554 | 67 | 5 | 6.1 | 11.3 | 0.00 | 0.00 | 0.00 | 71 | 1014.9 |
| 20260905223054 | 68 | 30 | 8.7 | 13.0 | 0.00 | 0.00 | 0.00 | 70 | 1014.8 |
| 20260905221557 | 68 | 41 | 7.0 | 12.2 | 0.00 | 0.00 | 0.00 | 68 | 1014.7 |
| 20260905220053 | 69 | 26 | 6.1 | 10.4 | 0.00 | 0.00 | 0.00 | 67 | 1014.6 |
| 20260905214552 | 69 | 31 | 8.7 | 13.9 | 0.00 | 0.00 | 0.00 | 66 | 1014.6 |
| 20260905213051 | 69 | 38 | 8.7 | 13.9 | 0.00 | 0.00 | 0.00 | 67 | 1014.5 |
| 20260905211556 | 70 | 360 | 7.8 | 12.2 | 0.00 | 0.00 | 0.00 | 70 | 1014.6 |
| 20260905210049 | 70 | 30 | 8.7 | 13.0 | 0.00 | 0.00 | 0.00 | 69 | 1014.8 |
| 20260905204548 | 71 | 36 | 9.6 | 13.0 | 0.00 | 0.00 | 0.00 | 67 | 1014.7 |
| 20260905203055 | 71 | 27 | 8.7 | 13.9 | 0.00 | 0.00 | 0.00 | 66 | 1014.7 |
| 20260905201548 | 71 | 47 | 9.6 | 13.0 | 0.00 | 0.00 | 0.00 | 67 | 1014.6 |
| 20260905200050 | 72 | 42 | 9.6 | 13.0 | 0.00 | 0.00 | 0.00 | 67 | 1014.5 |
| 20260905194546 | 72 | 45 | 10.4 | 13.9 | 0.00 | 0.00 | 0.00 | 65 | 1014.5 |
| 20260905193104 | 72 | 57 | 7.8 | 11.3 | 0.00 | 0.00 | 0.00 | 68 | 1014.6 |
| 20260905191545 | 72 | 61 | 9.6 | 13.0 | 0.00 | 0.00 | 0.00 | 66 | 1014.6 |
| 20260905190045 | 72 | 51 | 8.7 | 13.9 | 0.00 | 0.00 | 0.00 | 67 | 1014.7 |
| 20260905184544 | 72 | 5 | 8.7 | 14.8 | 0.00 | 0.00 | 0.00 | 67 | 1014.7 |
| 20260905183046 | 72 | 65 | 8.7 | 13.0 | 0.00 | 0.00 | 0.00 | 68 | 1014.7 |
| 20260905181542 | 72 | 59 | 6.1 | 12.2 | 0.00 | 0.00 | 0.00 | 70 | 1014.7 |
| 20260905180042 | 73 | 58 | 7.8 | 13.9 | 0.00 | 0.00 | 0.00 | 71 | 1014.7 |
| 20260905174540 | 73 | 16 | 7.0 | 12.2 | 0.00 | 0.00 | 0.00 | 71 | 1014.6 |
| 20260905173042 | 73 | 49 | 7.8 | 12.2 | 0.00 | 0.00 | 0.00 | 69 | 1014.6 |
| 20260905171539 | 73 | 67 | 7.8 | 10.4 | 0.00 | 0.00 | 0.00 | 68 | 1014.6 |
| 20260905170038 | 73 | 47 | 5.2 | 11.3 | 0.00 | 0.00 | 0.00 | 66 | 1014.7 |
| 20260905164535 | 73 | 44 | 7.8 | 10.4 | 0.00 | 0.00 | 0.00 | 68 | 1014.7 |
| 20260905163034 | 73 | 101 | 4.3 | 10.4 | 0.00 | 0.00 | 0.00 | 69 | 1014.7 |
| 20260905161532 | 72 | 58 | 7.0 | 9.6 | 0.00 | 0.00 | 0.00 | 66 | 1014.7 |
| 20260905160031 | 72 | 51 | 8.7 | 10.4 | 0.00 | 0.00 | 0.00 | 63 | 1014.7 |
| 20260905154527 | 73 | 14 | 5.2 | 8.7 | 0.00 | 0.00 | 0.00 | 69 | 1014.6 |
| 20260905153026 | 73 | 67 | 4.3 | 8.7 | 0.00 | 0.00 | 0.00 | 71 | 1014.5 |
| 20260905151522 | 72 | 68 | 5.2 | 10.4 | 0.00 | 0.00 | 0.00 | 69 | 1014.4 |
| 20260905150019 | 71 | 58 | 7.0 | 11.3 | 0.00 | 0.00 | 0.00 | 69 | 1014.4 |
| 20260905144519 | 71 | 100 | 5.2 | 9.6 | 0.00 | 0.00 | 0.00 | 73 | 1014.4 |
| 20260905143013 | 71 | 53 | 5.2 | 8.7 | 0.00 | 0.00 | 0.00 | 74 | 1014.3 |
| 20260905141511 | 70 | 58 | 4.3 | 9.6 | 0.00 | 0.00 | 0.00 | 75 | 1014.4 |
| 20260905140007 | 70 | 30 | 6.1 | 10.4 | 0.00 | 0.00 | 0.00 | 77 | 1014.3 |
| 20260905134502 | 69 | 61 | 6.1 | 10.4 | 0.00 | 0.00 | 0.00 | 78 | 1014.3 |
| 20260905133058 | 69 | 57 | 5.2 | 9.6 | 0.00 | 0.00 | 0.00 | 78 | 1014.2 |
| 20260905131553 | 69 | 54 | 5.2 | 10.4 | 0.00 | 0.00 | 0.00 | 79 | 1014.2 |
| 20260905130049 | 68 | 73 | 3.5 | 5.2 | 0.00 | 0.00 | 0.00 | 83 | 1014.2 |
| 20260905124547 | 66 | 58 | 1.7 | 4.3 | 0.00 | 0.01 | 0.00 | 84 | 1014.2 |
| 20260905123048 | 66 | 50 | 3.5 | 8.7 | 0.00 | 0.01 | 0.00 | 83 | 1014.1 |
| 20260905121541 | 66 | 69 | 0.9 | 4.3 | 0.00 | 0.01 | 0.00 | 84 | 1014.1 |
| 20260905120037 | 65 | 47 | 2.6 | 4.3 | 0.00 | 0.01 | 0.00 | 85 | 1013.9 |
| 20260905114534 | 65 | 44 | 3.5 | 6.1 | 0.00 | 0.01 | 0.00 | 86 | 1013.6 |
| 20260905113034 | 64 | 66 | 1.7 | 4.3 | 0.00 | 0.01 | 0.00 | 88 | 1013.6 |
| 20260905111531 | 64 | 55 | 2.6 | 5.2 | 0.00 | 0.01 | 0.00 | 88 | 1013.4 |
| 20260905110029 | 64 | 43 | 2.6 | 4.3 | 0.00 | 0.01 | 0.00 | 87 | 1013.4 |
| 20260905104528 | 64 | 62 | 3.5 | 8.7 | 0.00 | 0.01 | 0.00 | 87 | 1013.1 |
| 20260905103034 | 64 | 37 | 4.3 | 7.8 | 0.00 | 0.01 | 0.00 | 87 | 1013.2 |
| 20260905101530 | 65 | 28 | 4.3 | 7.0 | 0.00 | 0.01 | 0.00 | 87 | 1013.3 |
| 20260905100026 | 65 | 26 | 3.5 | 5.2 | 0.00 | 0.01 | 0.00 | 87 | 1013.5 |
| 20260905094526 | 65 | 48 | 3.5 | 4.3 | 0.00 | 0.01 | 0.00 | 87 | 1013.6 |
| 20260905093025 | 65 | 50 | 2.6 | 4.3 | 0.00 | 0.01 | 0.00 | 87 | 1013.6 |
| 20260905091524 | 65 | 36 | 3.5 | 5.2 | 0.00 | 0.01 | 0.00 | 88 | 1013.4 |
| 20260905090032 | 65 | 24 | 2.6 | 3.5 | 0.00 | 0.01 | 0.00 | 90 | 1013.2 |
| 20260905084522 | 65 | 40 | 0.9 | 2.6 | 0.00 | 0.01 | 0.00 | 91 | 1013.3 |
| 20260905083021 | 65 | 40 | 0.9 | 2.6 | 0.00 | 0.01 | 0.00 | 91 | 1013.4 |
| 20260905081522 | 65 | 48 | 1.7 | 5.2 | 0.00 | 0.01 | 0.00 | 91 | 1013.1 |
| 20260905080021 | 65 | 34 | 2.6 | 4.3 | 0.00 | 0.01 | 0.00 | 92 | 1013.1 |
| 20260905074519 | 65 | 36 | 2.6 | 4.3 | 0.00 | 0.01 | 0.00 | 92 | 1012.8 |
| 20260905073019 | 65 | 13 | 1.7 | 3.5 | 0.00 | 0.01 | 0.00 | 92 | 1012.8 |
| 20260905071519 | 65 | 39 | 0.9 | 2.6 | 0.00 | 0.01 | 0.00 | 92 | 1012.6 |